sat.trackr.live / text

‹ back to catalog

STARLINK-35645

NORAD 66124 · 2025-237L

PAYLOAD ACTIVE UNKNOWN

§ Identity

Operator
Country
US
Launch date
2025-10-22
Launch site
AFWTR
Launch vehicle
Mass (kg)
RCS (m²)

Purposes: comms

External: N2YO · Heavens-Above · Gunter

§ Orbital elements

Epoch: 2026-05-24T23:50:01.178016Z

Period
94.10 min
Inclination
53.1602°
Eccentricity
0.0001223
Mean motion
15.30212549 rev/d
Perigee alt
474.3 km
Apogee alt
476.0 km
Semi-major
6,853.3 km
B*
3.3360e-4
RAAN
45.1448°
Arg perigee
93.2267°
Mean anomaly
266.8874°
Rev number
3,429

§ Raw data

STARLINK-356451 66124U 25237L   26144.99306919  .00009537  00000+0  33360-3 0  99922 66124  53.1602  45.1448 0001223  93.2267 266.8874 15.30212549 34292

JSON: /api/v1/satellites/66124 · /tle

For live sub-satellite position, see the globe view (requires WebGL).

§ Visibility from observer

Set your observer location to see the next 7 days of passes ≥ 10°. The values pass through the URL so the page stays shareable.

No JS? Fill the form by hand. The geolocation button needs JavaScript.